[[{"header":{"parameterUnit":"m.s-1","parameterCategory":1,"la1":30.2991,"la2":30.254,"lo1":-89.0895,"lo2":-89.0444,"dy":0.0017,"dx":0.0017,"nx":28,"ny":28,"refTime":"2024-03-21T21:00:00:Z","depth":0,"parameterNumber":2,"parameterNumberName":"U-component_of_WINDS"},"data":[0,0,0,0,0,0,0,0,0,0,0,0,0,0,0,0,0,0,0,0,0,0,0,0,0,0,0,0,0,0,0,0,0,0,0,0,0,0,0,0,0,0,0,0,0,0,0,0,0,0,0,0,0,0,0,0,0,0,0.3588,0.3585,0,0.3315,0.3312,0.3309,0.3203,0.3204,0.3205,0.3205,0.2926,0.2918,0.291,0,0,0,0,0,0,0,0,0,0,0,0,0,0.4017,0.4009,0.3588,0.3584,0.3581,0.3316,0.3312,0.3308,0.3203,0.3204,0.3205,0.3206,0.2929,0.2919,0.2909,0,0,0,0,0,0,0,0,0,0,0,0,0,0.3796,0.4007,0.3588,0.3496,0.3485,0.3317,0.3312,0.3307,0.3203,0.3204,0.3205,0.3206,0.2932,0.292,0.2908,0.281,0,0,0.2871,0.2865,0,0,0,0,0,0,0,0,0.3809,0.3781,0.3513,0.3502,0.349,0.3294,0.3361,0.3141,0.3202,0.331,0.3205,0.3207,0.3048,0.3026,0.2972,0.2797,0.2785,0.287,0.2862,0.2857,0.2854,0,0,0,0,0,0,0,0.3824,0.3792,0.348,0.351,0.3495,0.3469,0.3439,0.3319,0.3176,0.3301,0.3292,0.3262,0.3041,0.2984,0.2965,0.2781,0.287,0.2859,0.2852,0.2847,0.2513,0.2512,0,0,0,0,0,0,0.3855,0.3805,0.3489,0.3472,0.3655,0.346,0.3427,0.3356,0.3177,0.3151,0.3261,0.3258,0.3005,0.2979,0.2955,0.2828,0.2857,0.2846,0.2839,0.2515,0.2513,0.2511,0,0,0,0,0,0,0.3864,0.3828,0.35,0.3636,0.3592,0.3452,0.3373,0.335,0.3293,0.3147,0.3121,0.3229,0.3005,0.2972,0.2847,0.2817,0.284,0.2829,0.2516,0.2514,0.2512,0.2575,0,0,0,0,0,0,0.3877,0.3832,0.3793,0.3636,0.3585,0.3396,0.3371,0.3344,0.3272,0.3265,0.311,0.3085,0.3003,0.2866,0.2835,0.2801,0.282,0.2518,0.2515,0.2513,0.2575,0.2575,0.2576,0,0,0,0,0,0.3893,0.3821,0.3791,0.3754,0.3534,0.3395,0.3366,0.3273,0.327,0.323,0.3137,0.309,0.2826,0.2854,0.2818,0.278,0.252,0.2516,0.2513,0.2575,0.2575,0.2576,0,0,0,0,0,0,0.3978,0.3799,0.3764,0.3639,0.3533,0.3377,0.3323,0.3276,0.3168,0.3166,0.3056,0.3021,0.2906,0.283,0.2865,0.2677,0.267,0.2659,0.2729,0.2728,0.2729,0.2748,0.2809,0,0,0,0,0,0.3982,0.3884,0.3733,0.3638,0.3587,0.3465,0.3401,0.3339,0.3224,0.3178,0.3075,0.2966,0.2858,0.279,0.2682,0.2565,0.2529,0.2521,0.2522,0.2522,0.2513,0.2446,0.244,0.25,0.25,0.25,0,0,0.399,0.388,0.3825,0.3652,0.3563,0.3464,0.3428,0.3324,0.3249,0.3162,0.3038,0.2959,0.283,0.2709,0.265,0.2642,0.249,0.2518,0.252,0.251,0.2441,0.2436,0.2431,0.2497,0.2498,0.2498,0,0,0.3952,0.386,0.377,0.3682,0.3547,0.3466,0.3446,0.3297,0.3241,0.3115,0.3048,0.2958,0.2775,0.2685,0.2616,0.2548,0.2501,0.2516,0.2516,0.2451,0.2447,0.2442,0.2416,0.2409,0.2509,0.2509,0.2509,0,0.3978,0.3826,0.373,0.363,0.3556,0.3475,0.3383,0.3302,0.3139,0.309,0.3085,0.2854,0.2761,0.2617,0.2601,0.2548,0.252,0.2532,0.2455,0.2449,0.2444,0.2418,0.2409,0.2511,0.2511,0.2511,0.2511,0,0.3864,0.376,0.3704,0.3549,0.3469,0.3375,0.3265,0.3196,0.3142,0.3062,0.2935,0.2822,0.269,0.2652,0.2598,0.2501,0.25,0.2477,0.2467,0.2442,0.2416,0.2406,0.2515,0.2514,0.2513,0.2513,0,0,0.3869,0.3665,0.3645,0.3574,0.3421,0.3338,0.3241,0.3112,0.3055,0.2947,0.2861,0.2709,0.2687,0.2608,0.2544,0.2487,0.244,0.247,0.2465,0.2467,0.2325,0.2343,0.2333,0.2409,0.2407,0.2405,0.2336,0,0.381,0.363,0.3542,0.3401,0.3303,0.3226,0.314,0.3037,0.2962,0.2868,0.2784,0.2678,0.2657,0.2609,0.255,0.2458,0.2409,0.2462,0.2328,0.2324,0.236,0.2319,0.2336,0.2276,0.2325,0.2323,0.2322,0,0.3716,0.3608,0.3458,0.3316,0.3272,0.3197,0.3072,0.2984,0.2866,0.2815,0.2729,0.2667,0.2561,0.2562,0.2414,0.2453,0.2393,0.234,0.2335,0.2317,0.232,0.2298,0.2255,0.2245,0.2305,0.2307,0.2308,0,0.3733,0.3551,0.3437,0.3379,0.3211,0.316,0.3088,0.2971,0.29,0.2793,0.2745,0.2627,0.2562,0.2472,0.2379,0.2389,0.2241,0.2234,0.2195,0.2197,0.2164,0.2167,0.2109,0.213,0.2131,0.2131,0.2131,0,0.3675,0.3585,0.3442,0.3372,0.3269,0.317,0.3072,0.2994,0.2891,0.2805,0.2731,0.2652,0.2536,0.2442,0.2369,0.2258,0.223,0.2185,0.2166,0.219,0.2195,0.2147,0.2148,0.2128,0.2129,0.2129,0.213,0,0.3675,0.3576,0.3446,0.3299,0.326,0.3191,0.3065,0.2994,0.2917,0.2808,0.2777,0.2654,0.2539,0.2439,0.2288,0.224,0.2125,0.2103,0.2165,0.2154,0.212,0.2124,0.2027,0.2008,0.2045,0.2045,0.2045,0,0.3643,0.3572,0.3418,0.3355,0.3284,0.3184,0.3111,0.3012,0.2939,0.2801,0.2747,0.2627,0.2526,0.2348,0.2245,0.2129,0.2103,0.2077,0.2085,0.2111,0.21,0.2105,0.2097,0.2076,0.2076,0.2077,0.2077,0,0.3596,0.3551,0.3449,0.3331,0.3246,0.3148,0.3048,0.3,0.2882,0.2805,0.2687,0.2609,0.2456,0.2338,0.2212,0.2138,0.2087,0.2076,0.206,0.2082,0.212,0.2098,0.2163,0.2077,0.2077,0.2077,0.2077,0.2077,0.3578,0.3511,0.3393,0.3282,0.3197,0.3105,0.3031,0.2944,0.2845,0.2711,0.266,0.254,0.2425,0.225,0.2177,0.2082,0.2073,0.2051,0.2045,0.204,0.2044,0.2138,0.2058,0.2058,0.2058,0.2058,0.2058,0,0.3526,0.3446,0.3346,0.3208,0.3121,0.3083,0.297,0.29,0.2796,0.2693,0.2596,0.2461,0.2347,0.2237,0.2117,0.2063,0.2037,0.2034,0.2036,0.202,0.2059,0.2083,0.2058,0.2058,0.2058,0.2058,0.2058,0.2058,0.3489,0.3374,0.3315,0.3158,0.3079,0.2961,0.29,0.2815,0.2733,0.2586,0.2491,0.242,0.2314,0.2187,0.2081,0.2051,0.201,0.2014,0.1978,0.2016,0.2017,0.2018,0.2041,0.2006,0.2006,0.1946,0.1946,0.1945]},{"header":{"parameterUnit":"m.s-1","parameterCategory":1,"la1":30.2991,"la2":30.254,"lo1":-89.0895,"lo2":-89.0444,"dy":0.0017,"dx":0.0017,"nx":28,"ny":28,"refTime":"2024-03-21T21:00:00:Z","depth":0,"parameterNumber":3,"parameterNumberName":"V-component_of_WINDS"},"data":[0,0,0,0,0,0,0,0,0,0,0,0,0,0,0,0,0,0,0,0,0,0,0,0,0,0,0,0,0,0,0,0,0,0,0,0,0,0,0,0,0,0,0,0,0,0,0,0,0,0,0,0,0,0,0,0,0,0,-1.6492,-1.6494,0,-1.6711,-1.6714,-1.6716,-1.6799,-1.6798,-1.6798,-1.6797,-1.7022,-1.7029,-1.7035,0,0,0,0,0,0,0,0,0,0,0,0,0,-1.6149,-1.6155,-1.6492,-1.6494,-1.6497,-1.6711,-1.6714,-1.6717,-1.6799,-1.6798,-1.6798,-1.6797,-1.702,-1.7028,-1.7036,0,0,0,0,0,0,0,0,0,0,0,0,0,-1.6326,-1.6157,-1.6491,-1.6564,-1.6573,-1.671,-1.6714,-1.6718,-1.6799,-1.6798,-1.6797,-1.6796,-1.7018,-1.7027,-1.7037,-1.7118,0,0,-1.7067,-1.7072,0,0,0,0,0,0,0,0,-1.6316,-1.6338,-1.6551,-1.6559,-1.6569,-1.6727,-1.6676,-1.6852,-1.68,-1.6713,-1.6797,-1.6796,-1.6925,-1.6942,-1.6986,-1.7129,-1.7138,-1.7068,-1.7074,-1.7078,-1.7081,0,0,0,0,0,0,0,-1.6303,-1.6329,-1.6578,-1.6554,-1.6565,-1.6587,-1.6611,-1.6709,-1.6822,-1.6721,-1.6727,-1.6752,-1.693,-1.6976,-1.6992,-1.7142,-1.7068,-1.7077,-1.7083,-1.7087,-1.737,-1.7371,0,0,0,0,0,0,-1.6278,-1.6318,-1.6572,-1.6585,-1.6437,-1.6594,-1.6621,-1.6677,-1.6821,-1.6842,-1.6753,-1.6755,-1.6959,-1.698,-1.7,-1.7109,-1.7078,-1.7088,-1.7093,-1.7368,-1.737,-1.7372,0,0,0,0,0,0,-1.6271,-1.63,-1.6563,-1.6454,-1.6489,-1.6601,-1.6663,-1.6682,-1.6728,-1.6845,-1.6866,-1.6779,-1.6959,-1.6986,-1.709,-1.7118,-1.7092,-1.7101,-1.7366,-1.7369,-1.7371,-1.7325,0,0,0,0,0,0,-1.6261,-1.6297,-1.6327,-1.6454,-1.6494,-1.6647,-1.6665,-1.6687,-1.6745,-1.675,-1.6875,-1.6895,-1.6961,-1.7074,-1.7099,-1.7131,-1.7109,-1.7364,-1.7367,-1.737,-1.7325,-1.7326,-1.7326,0,0,0,0,0,-1.6248,-1.6304,-1.6328,-1.6358,-1.6535,-1.6648,-1.6672,-1.6746,-1.6747,-1.678,-1.6856,-1.6891,-1.711,-1.7084,-1.7113,-1.7148,-1.7363,-1.7366,-1.737,-1.7324,-1.7325,-1.7326,0,0,0,0,0,0,-1.6177,-1.6322,-1.635,-1.6449,-1.6536,-1.6662,-1.6706,-1.6744,-1.6832,-1.6833,-1.6922,-1.695,-1.7048,-1.7108,-1.7076,-1.7238,-1.7239,-1.7249,-1.7195,-1.7197,-1.7198,-1.7182,-1.7117,0,0,0,0,0,-1.6173,-1.6252,-1.6375,-1.645,-1.6493,-1.6592,-1.6644,-1.6694,-1.6788,-1.6825,-1.6908,-1.6999,-1.7089,-1.7146,-1.7234,-1.7334,-1.7365,-1.7373,-1.7373,-1.7373,-1.7381,-1.7444,-1.7451,-1.7383,-1.7383,-1.7383,0,0,-1.6164,-1.6254,-1.6298,-1.6439,-1.6512,-1.6595,-1.6622,-1.6706,-1.677,-1.6838,-1.6942,-1.7007,-1.7114,-1.7217,-1.7267,-1.7271,-1.7407,-1.7378,-1.7377,-1.7385,-1.7449,-1.7455,-1.7461,-1.7386,-1.7385,-1.7385,0,0,-1.6193,-1.6267,-1.6341,-1.6415,-1.6526,-1.6593,-1.661,-1.6733,-1.6779,-1.6885,-1.694,-1.7017,-1.7168,-1.7244,-1.7302,-1.7366,-1.7404,-1.7392,-1.7398,-1.7458,-1.7463,-1.7469,-1.7496,-1.7504,-1.7399,-1.7399,-1.7399,0,-1.6169,-1.6295,-1.6373,-1.6458,-1.652,-1.6587,-1.6664,-1.6732,-1.6867,-1.6909,-1.6912,-1.7108,-1.7184,-1.7309,-1.7325,-1.7368,-1.7395,-1.7379,-1.7456,-1.7462,-1.7468,-1.7496,-1.7505,-1.7397,-1.7398,-1.7398,-1.7398,0,-1.6262,-1.6349,-1.6396,-1.6526,-1.6594,-1.6673,-1.6767,-1.6826,-1.6871,-1.6938,-1.7049,-1.7144,-1.7256,-1.7289,-1.7332,-1.7422,-1.7422,-1.7438,-1.7442,-1.7472,-1.7499,-1.751,-1.7395,-1.7395,-1.7396,-1.7396,0,0,-1.6249,-1.6426,-1.6442,-1.6505,-1.6636,-1.6706,-1.6791,-1.6902,-1.6953,-1.7044,-1.7121,-1.725,-1.7269,-1.7335,-1.7389,-1.7441,-1.7493,-1.7454,-1.7458,-1.7461,-1.7603,-1.7592,-1.7602,-1.7518,-1.752,-1.7522,-1.7596,0,-1.6297,-1.6452,-1.6528,-1.6651,-1.6736,-1.6804,-1.6879,-1.6969,-1.7035,-1.7118,-1.7191,-1.7283,-1.7298,-1.734,-1.7395,-1.7474,-1.7523,-1.747,-1.7593,-1.7596,-1.7567,-1.7616,-1.7602,-1.7667,-1.7606,-1.7608,-1.7609,0,-1.6373,-1.6468,-1.6599,-1.6727,-1.6765,-1.6831,-1.6942,-1.7019,-1.7124,-1.7169,-1.7246,-1.7299,-1.7395,-1.7391,-1.7527,-1.7489,-1.7545,-1.7592,-1.7597,-1.7613,-1.7606,-1.7637,-1.7689,-1.77,-1.7626,-1.7625,-1.7624,0,-1.6355,-1.6515,-1.6617,-1.6668,-1.6817,-1.6863,-1.6928,-1.7032,-1.7096,-1.7193,-1.7237,-1.7342,-1.7401,-1.7484,-1.7566,-1.7555,-1.7696,-1.7697,-1.7739,-1.7737,-1.7767,-1.7764,-1.7832,-1.7797,-1.7796,-1.7796,-1.7796,0,-1.6402,-1.6481,-1.6612,-1.6674,-1.6766,-1.6855,-1.6944,-1.7014,-1.7108,-1.7187,-1.7252,-1.7325,-1.7428,-1.7515,-1.758,-1.7686,-1.7711,-1.7752,-1.7769,-1.7748,-1.7744,-1.7787,-1.7786,-1.7799,-1.7798,-1.7798,-1.7797,0,-1.6397,-1.6487,-1.6603,-1.6737,-1.6773,-1.6836,-1.6952,-1.7017,-1.7088,-1.7188,-1.7217,-1.7329,-1.7436,-1.7526,-1.7665,-1.771,-1.7821,-1.7838,-1.7785,-1.7795,-1.7833,-1.783,-1.7934,-1.7955,-1.7901,-1.7901,-1.7902,0,-1.6422,-1.6485,-1.6628,-1.6687,-1.6751,-1.6843,-1.6911,-1.7002,-1.7069,-1.7198,-1.7249,-1.7361,-1.7455,-1.7623,-1.7718,-1.7827,-1.785,-1.788,-1.7867,-1.7846,-1.7856,-1.7853,-1.7862,-1.7881,-1.7881,-1.7881,-1.7881,0,-1.6458,-1.6502,-1.6595,-1.6707,-1.6786,-1.6878,-1.6971,-1.7016,-1.7125,-1.7198,-1.731,-1.7383,-1.7529,-1.7641,-1.7761,-1.783,-1.7876,-1.7885,-1.7901,-1.7881,-1.785,-1.7872,-1.7791,-1.7882,-1.7882,-1.7882,-1.7882,-1.7882,-1.6472,-1.6534,-1.6646,-1.675,-1.6831,-1.6919,-1.6989,-1.7071,-1.7166,-1.7292,-1.7341,-1.7456,-1.7566,-1.7733,-1.7802,-1.7896,-1.7902,-1.7923,-1.793,-1.7935,-1.7934,-1.7833,-1.7917,-1.7917,-1.7917,-1.7917,-1.7917,0,-1.6515,-1.6592,-1.6687,-1.6819,-1.6902,-1.6939,-1.7047,-1.7115,-1.7215,-1.7314,-1.7408,-1.7539,-1.765,-1.7756,-1.7872,-1.7927,-1.7952,-1.7955,-1.7953,-1.797,-1.792,-1.7896,-1.7934,-1.7934,-1.7934,-1.7934,-1.7934,-1.7934,-1.6547,-1.6656,-1.6713,-1.6865,-1.6942,-1.7057,-1.7116,-1.7199,-1.7279,-1.7424,-1.7517,-1.7586,-1.7689,-1.7815,-1.792,-1.7949,-1.799,-1.7989,-1.8024,-1.7975,-1.7972,-1.797,-1.7948,-1.7997,-1.7997,-1.8067,-1.8068,-1.8068]}]]